This demonstration page uses our WeatherBlox Daily Observations layout. Learn more.

Left ArrowRight Arrow

36.17497, -115.13722

Hourly Observations for October 26, 2016

Temp ( °F °C ) Dew Point ( °F °C ) Humidity (%) Winds ( mph kmh ) Pressure ( in mb ) Visibility ( mi km ) Precip ( " mm )
12:53 am 00:53 Clear 61 16.1 52 11.1 72 72 NNW 5 7 30.15 1021 10 16.0934 0 0
1:53 am 01:53 Clear 62 16.7 53 11.7 73 73 Calm 30.15 1021 10 16.0934 0 0
2:53 am 02:53 Clear 59 15 51 10.6 75 75 NNW 5 7 30.14 1021 10 16.0934 0 0
3:53 am 03:53 Clear 58 14.4 53 11.7 84 84 NW 7 11 30.14 1021 10 16.0934 0 0
4:53 am 04:53 Clear 59 15 54 12.2 83 83 NW 7 11 30.13 1020 10 16.0934 0 0
5:53 am 05:53 Clear 59 15 50 10 72 72 NW 5 7 30.14 1021 10 16.0934 0 0
6:53 am 06:53 Clear 59 15 52 11.1 78 78 W 3 6 30.15 1021 10 16.0934 0 0
7:53 am 07:53 Sunny 60 15.6 53 11.7 78 78 Calm 30.16 1021 10 16.0934 0 0
8:53 am 08:53 Sunny 64 17.8 54 12.2 70 70 Calm 30.18 1022 10 16.0934 0 0
9:53 am 09:53 Sunny 67 19.4 54 12.2 63 63 Calm 30.19 1022 10 16.0934 0 0
10:53 am 10:53 Sunny 71 21.7 53 11.7 53 53 SE 3 6 30.17 1022 10 16.0934 0 0
11:53 am 11:53 Sunny 74 23.3 50 10 43 43 SE 6 9 30.15 1021 10 16.0934 0 0
12:53 pm 12:53 Sunny 76 24.4 49 9.4 39 39 SE 7 11 30.12 1020 10 16.0934 0 0
1:53 pm 13:53 Sunny 77 25 48 8.9 36 36 SSE 6 9 30.09 1019 10 16.0934 0 0
2:53 pm 14:53 Sunny 79 26.1 49 9.4 35 35 SSE 7 11 30.07 1018 10 16.0934 0 0
3:53 pm 15:53 Sunny 79 26.1 49 9.4 35 35 SSE 3 6 30.06 1018 10 16.0934 0 0
4:53 pm 16:53 Sunny 79 26.1 49 9.4 35 35 ESE 6 9 30.04 1017 10 16.0934 0 0
5:53 pm 17:53 Clear 77 25 49 9.4 37 37 S 3 6 30.05 1018 10 16.0934 0 0
6:53 pm 18:53 Clear 75 23.9 50 10 41 41 Calm 30.06 1018 10 16.0934 0 0
7:53 pm 19:53 Clear 72 22.2 52 11.1 50 50 Calm 30.07 1018 10 16.0934 0 0
8:53 pm 20:53 Clear 69 20.6 52 11.1 55 55 NW 3 6 30.08 1019 10 16.0934 0 0
9:53 pm 21:53 Clear 68 20 51 10.6 55 55 NNW 5 7 30.08 1019 10 16.0934 0 0
10:53 pm 22:53 Clear 66 18.9 52 11.1 61 61 NW 3 6 30.08 1019 10 16.0934 0 0
11:53 pm 23:53 Clear 64 17.8 51 10.6 63 63 NW 6 9 30.08 1019 10 16.0934 0 0

Powered by AerisWeather